Regional Weather Roundup
Issued by NWS

Home | Current Version | Previous Version | Graphics & Text | Print | Product List | Glossary On
Versions: 1 2 3 4 5 6 7 8 9 10 11 12 13 14 15 16 17 18 19 20 21 22 23 24 25 26 27 28 29 30 31 32 33 34 35 36 37 38 39 40 41 42 43 44 45 46 47 48 49 50
000
ASUS44 KMEG 310100
RWRTN
TENNESSEE HOURLY STATE WEATHER ROUNDUP
NATIONAL WEATHER SERVICE MEMPHIS TN
800 PM CDT THU OCT 30 2014

TNZ002-004-019-021-049-052-054-088>092-310200-
WEST TENNESSEE

CITY           SKY/WX    TMP DP  RH WIND       PRES   REMARKS
MEMPHIS INTL   CLOUDY    62  46  55 S3        30.03S
NWS MEMPHIS      N/A     56 N/A N/A MISG        N/A
JACKSON        MOCLDY    54  45  71 CALM      30.04S
DYERSBURG      CLOUDY    54  39  58 CALM      30.05F
UNION CITY     MOCLDY    54  48  82 CALM      30.03F
PARIS          MOCLDY    52  45  76 NE6       30.05F
LEXINGTON      PTCLDY    48  43  81 CALM      30.02F
SAVANNAH       CLEAR     45  45 100 CALM      30.04F
$$

TNZ008-025-027-028-033-062-065-066-310200-
NORTH MIDDLE TENNESSEE

CITY           SKY/WX    TMP DP  RH WIND       PRES   REMARKS
NASHVILLE      CLEAR     51  40  65 CALM      30.05S
CLARKSVILLE    MOCLDY    52  41  66 CALM      30.05R
COOKEVILLE     CLEAR     39  37  93 CALM      30.03S
CROSSVILLE     PTCLDY    47  37  68 CALM      30.04S
$$

TNZ061-075-076-078-094-096-097-310200-
SOUTH MIDDLE TENNESSEE

CITY           SKY/WX    TMP DP  RH WIND       PRES   REMARKS
FAYETTEVILLE   CLEAR     46  39  76 MISG      30.04S
WINCHESTER     CLEAR     45  41  87 CALM      30.04F
SHELBYVILLE    CLEAR     45  41  87 CALM      30.05S
$$

TNZ017-018-042-046-047-310200-
NORTHEAST TENNESSEE

CITY           SKY/WX    TMP DP  RH WIND       PRES   REMARKS
TRI CITIES     PTCLDY    43  38  82 CALM      30.02S
ELIZABETHTON   CLEAR     37  36  93 CALM      30.02S
$$

TNZ012-013-036-069-073-074-310200-
CENTRAL EAST TENNESSEE

CITY           SKY/WX    TMP DP  RH WIND       PRES   REMARKS
KNOXVILLE      PTCLDY    49  42  77 CALM      30.00S
OAK RIDGE      CLEAR     49  43  80 CALM      30.03F
GATLINBURG     CLEAR     45  39  81 CALM      30.01S
$$

TNZ083-085-099-310200-
SOUTHEAST TENNESSEE

CITY           SKY/WX    TMP DP  RH WIND       PRES   REMARKS
CHATTANOOGA    CLEAR     54  40  59 NW3       30.02S
$$

SKY/WX REPORTED AS FAIR MEANS FEW OR NO CLOUDS BELOW
12 THOUSAND FEET.




USA.gov is the U.S. government's official web portal to all federal, state and local government web resources and services.